Location: Pian di Sc�
(43.6333°N, 11.5500°E)
Time: 14:00:18
(UTC+00:00)

NOSS 3-1 (A) - Pass Details

Date: 07 August 2020
Orbit: 745 x 1467 km, 63.4° (Epoch: 21 September)

Event Time Altitude Azimuth Distance (km) Brightness Sun altitude
Exits shadow 03:00:13 15° 224° (SW) 2,019 4.5 -11.7°
Maximum altitude 03:04:42 74° 309° (NW) 904 3.3 -11.1°
Drops below altitude 10° 03:11:01 10° 34° (NE) 2,750 7.1 -10.1°
Sets 03:13:51 0° 37° (NE) 3,817 8.2 -9.7°
